| time (UTC) | temp F | wind direction | speed MPH | gust MPH | rain 1hr in | rain 24hr in | rain mn in | humidity % | barometer mb |
| 20260903022049 | 89 | 195 | 3.0 | 5.0 | 0.00 | 0.00 | 0.00 | 47 | 1006.1 |
| 20260903021049 | 90 | 191 | 1.0 | 2.0 | 0.00 | 0.00 | 0.00 | 46 | 1005.8 |
| 20260903020048 | 91 | 197 | 1.0 | 1.0 | 0.00 | 0.00 | 0.00 | 46 | 1005.9 |
| 20260903015047 | 91 | 188 | 1.0 | 2.0 | 0.00 | 0.00 | 0.00 | 45 | 1005.8 |
| 20260903014048 | 92 | 206 | 1.0 | 3.0 | 0.00 | 0.00 | 0.00 | 44 | 1005.7 |
| 20260903013047 | 92 | 206 | 2.0 | 5.0 | 0.00 | 0.00 | 0.00 | 43 | 1005.5 |
| 20260903012048 | 93 | 230 | 1.0 | 3.0 | 0.00 | 0.00 | 0.00 | 43 | 1005.5 |
| 20260903011048 | 94 | 186 | 3.0 | 3.0 | 0.00 | 0.00 | 0.00 | 42 | 1005.3 |
| 20260903010049 | 94 | 200 | 3.0 | 6.0 | 0.00 | 0.00 | 0.00 | 42 | 1005.5 |
| 20260903005048 | 95 | 197 | 2.0 | 3.0 | 0.00 | 0.00 | 0.00 | 41 | 1005.4 |
| 20260903004049 | 96 | 179 | 3.0 | 6.0 | 0.00 | 0.00 | 0.00 | 40 | 1005.3 |
| 20260903003048 | 96 | 182 | 6.0 | 9.0 | 0.00 | 0.00 | 0.00 | 39 | 1005.4 |
| 20260903002822 | 97 | 196 | 2.0 | 5.0 | 0.00 | 0.00 | 0.00 | 40 | 1005.4 |
| 20260903001823 | 97 | 193 | 6.0 | 9.0 | 0.00 | 0.00 | 0.00 | 39 | 1005.4 |
| 20260903000822 | 97 | 183 | 6.0 | 9.0 | 0.00 | 0.00 | 0.00 | 38 | 1005.4 |
| 20260902235821 | 98 | 202 | 6.0 | 7.0 | 0.00 | 0.00 | 0.00 | 38 | 1005.4 |
| 20260902234822 | 98 | 186 | 5.0 | 6.0 | 0.00 | 0.00 | 0.00 | 38 | 1005.5 |
| 20260902233821 | 98 | 186 | 6.0 | 9.0 | 0.00 | 0.00 | 0.00 | 38 | 1005.4 |
| 20260902232823 | 98 | 236 | 5.0 | 9.0 | 0.00 | 0.00 | 0.00 | 38 | 1005.3 |
| 20260902231822 | 98 | 190 | 6.0 | 12.0 | 0.00 | 0.00 | 0.00 | 37 | 1005.5 |
| 20260902230823 | 99 | 190 | 10.0 | 16.0 | 0.00 | 0.00 | 0.00 | 36 | 1005.5 |
| 20260902225822 | 99 | 188 | 7.0 | 12.0 | 0.00 | 0.00 | 0.00 | 37 | 1005.4 |
| 20260902224821 | 99 | 201 | 5.0 | 6.0 | 0.00 | 0.00 | 0.00 | 36 | 1005.5 |
| 20260902223822 | 99 | 205 | 3.0 | 13.0 | 0.00 | 0.00 | 0.00 | 35 | 1005.6 |
| 20260902222821 | 100 | 193 | 8.0 | 12.0 | 0.00 | 0.00 | 0.00 | 34 | 1005.6 |
| 20260902221822 | 99 | 222 | 2.0 | 6.0 | 0.00 | 0.00 | 0.00 | 36 | 1005.6 |
| 20260902220821 | 99 | 185 | 6.0 | 9.0 | 0.00 | 0.00 | 0.00 | 35 | 1005.7 |
| 20260902215822 | 99 | 221 | 3.0 | 3.0 | 0.00 | 0.00 | 0.00 | 35 | 1005.8 |
| 20260902214821 | 99 | 187 | 3.0 | 6.0 | 0.00 | 0.00 | 0.00 | 35 | 1006.0 |
| 20260902213823 | 100 | 225 | 5.0 | 5.0 | 0.00 | 0.00 | 0.00 | 35 | 1006.0 |
| 20260902212821 | 100 | 197 | 6.0 | 7.0 | 0.00 | 0.00 | 0.00 | 34 | 1006.1 |
| 20260902211822 | 100 | 177 | 10.0 | 13.0 | 0.00 | 0.00 | 0.00 | 34 | 1006.2 |
| 20260902210823 | 100 | 219 | 5.0 | 6.0 | 0.00 | 0.00 | 0.00 | 34 | 1006.2 |
| 20260902205822 | 100 | 282 | 2.0 | 3.0 | 0.00 | 0.00 | 0.00 | 34 | 1006.3 |
| 20260902204821 | 100 | 280 | 1.0 | 2.0 | 0.00 | 0.00 | 0.00 | 33 | 1006.5 |
| 20260902203822 | 99 | 206 | 5.0 | 9.0 | 0.00 | 0.00 | 0.00 | 36 | 1006.6 |
| 20260902202822 | 99 | 177 | 5.0 | 7.0 | 0.00 | 0.00 | 0.00 | 35 | 1006.6 |
| 20260902201822 | 99 | 275 | 0.0 | 1.0 | 0.00 | 0.00 | 0.00 | 35 | 1006.7 |
| 20260902200822 | 99 | 266 | 1.0 | 2.0 | 0.00 | 0.00 | 0.00 | 37 | 1006.9 |
| 20260902195821 | 100 | 175 | 5.0 | 7.0 | 0.00 | 0.00 | 0.00 | 37 | 1006.9 |
| 20260902194822 | 99 | 179 | 8.0 | 12.0 | 0.00 | 0.00 | 0.00 | 37 | 1007.0 |
| 20260902193821 | 99 | 229 | 7.0 | 12.0 | 0.00 | 0.00 | 0.00 | 37 | 1007.2 |
| 20260902192822 | 99 | 182 | 6.0 | 8.0 | 0.00 | 0.00 | 0.00 | 39 | 1007.3 |
| 20260902191821 | 99 | 210 | 3.0 | 14.0 | 0.00 | 0.00 | 0.00 | 38 | 1007.5 |
| 20260902190822 | 99 | 210 | 2.0 | 13.0 | 0.00 | 0.00 | 0.00 | 39 | 1007.6 |
| 20260902185821 | 99 | 198 | 7.0 | 12.0 | 0.00 | 0.00 | 0.00 | 39 | 1007.6 |
| 20260902184822 | 98 | 178 | 2.0 | 12.0 | 0.00 | 0.00 | 0.00 | 41 | 1007.8 |
| 20260902183822 | 98 | 259 | 1.0 | 3.0 | 0.00 | 0.00 | 0.00 | 41 | 1008.1 |
| 20260902182821 | 98 | 195 | 6.0 | 15.0 | 0.00 | 0.00 | 0.00 | 41 | 1008.2 |
| 20260902181822 | 98 | 184 | 3.0 | 9.0 | 0.00 | 0.00 | 0.00 | 42 | 1008.4 |
| 20260902180821 | 98 | 178 | 6.0 | 12.0 | 0.00 | 0.00 | 0.00 | 42 | 1008.5 |
| 20260902175822 | 97 | 211 | 5.0 | 7.0 | 0.00 | 0.00 | 0.00 | 42 | 1008.7 |
| 20260902174821 | 97 | 282 | 2.0 | 7.0 | 0.00 | 0.00 | 0.00 | 42 | 1008.7 |
| 20260902173823 | 97 | 182 | 5.0 | 10.0 | 0.00 | 0.00 | 0.00 | 42 | 1008.8 |
| 20260902172822 | 96 | 190 | 5.0 | 6.0 | 0.00 | 0.00 | 0.00 | 43 | 1008.9 |
| 20260902171823 | 96 | 234 | 2.0 | 6.0 | 0.00 | 0.00 | 0.00 | 46 | 1009.0 |
| 20260902170822 | 95 | 281 | 1.0 | 3.0 | 0.00 | 0.00 | 0.00 | 45 | 1009.3 |
| 20260902165821 | 95 | 189 | 5.0 | 9.0 | 0.00 | 0.00 | 0.00 | 46 | 1009.3 |
| 20260902164822 | 94 | 285 | 1.0 | 3.0 | 0.00 | 0.00 | 0.00 | 47 | 1009.3 |
| 20260902163822 | 94 | 276 | 1.0 | 2.0 | 0.00 | 0.00 | 0.00 | 48 | 1009.4 |
| 20260902162822 | 93 | 196 | 3.0 | 7.0 | 0.00 | 0.00 | 0.00 | 49 | 1009.8 |
| 20260902161821 | 92 | 272 | 1.0 | 3.0 | 0.00 | 0.00 | 0.00 | 49 | 1009.8 |
| 20260902160822 | 92 | 254 | 1.0 | 2.0 | 0.00 | 0.00 | 0.00 | 52 | 1009.8 |
| 20260902155821 | 91 | 283 | 1.0 | 3.0 | 0.00 | 0.00 | 0.00 | 52 | 1010.0 |
| 20260902154822 | 91 | 201 | 3.0 | 5.0 | 0.00 | 0.00 | 0.00 | 52 | 1010.0 |
| 20260902153821 | 90 | 198 | 5.0 | 6.0 | 0.00 | 0.00 | 0.00 | 53 | 1010.0 |
| 20260902152822 | 90 | 223 | 0.0 | 1.0 | 0.00 | 0.00 | 0.00 | 54 | 1010.0 |
| 20260902151821 | 89 | 267 | 0.0 | 2.0 | 0.00 | 0.00 | 0.00 | 55 | 1010.1 |
| 20260902150821 | 88 | 272 | 2.0 | 10.0 | 0.00 | 0.00 | 0.00 | 55 | 1010.0 |
| 20260902145821 | 87 | 285 | 1.0 | 1.0 | 0.00 | 0.00 | 0.00 | 57 | 1010.0 |
| 20260902144821 | 87 | 183 | 2.0 | 12.0 | 0.00 | 0.00 | 0.00 | 59 | 1010.0 |
| 20260902143826 | 86 | 206 | 5.0 | 12.0 | 0.00 | 0.00 | 0.00 | 59 | 1010.0 |
| 20260902142823 | 85 | 230 | 3.0 | 5.0 | 0.00 | 0.00 | 0.00 | 60 | 1010.1 |
| 20260902141823 | 84 | 186 | 1.0 | 6.0 | 0.00 | 0.00 | 0.00 | 62 | 1010.1 |
| 20260902140824 | 83 | 179 | 2.0 | 2.0 | 0.00 | 0.00 | 0.00 | 63 | 1010.2 |
| 20260902135823 | 82 | 199 | 2.0 | 3.0 | 0.00 | 0.00 | 0.00 | 64 | 1010.1 |
| 20260902134824 | 81 | 195 | 3.0 | 6.0 | 0.00 | 0.00 | 0.00 | 65 | 1010.1 |
| 20260902133823 | 81 | 188 | 3.0 | 6.0 | 0.00 | 0.00 | 0.00 | 65 | 1010.1 |
| 20260902132822 | 80 | 185 | 3.0 | 3.0 | 0.00 | 0.00 | 0.00 | 66 | 1010.2 |
| 20260902131823 | 79 | 199 | 1.0 | 3.0 | 0.00 | 0.00 | 0.00 | 68 | 1010.2 |
| 20260902130824 | 78 | 179 | 2.0 | 3.0 | 0.00 | 0.00 | 0.00 | 68 | 1010.2 |
| 20260902125823 | 78 | 190 | 3.0 | 3.0 | 0.00 | 0.00 | 0.00 | 68 | 1010.0 |
| 20260902124823 | 77 | 184 | 2.0 | 3.0 | 0.00 | 0.00 | 0.00 | 68 | 1009.8 |
| 20260902123822 | 77 | 191 | 1.0 | 2.0 | 0.00 | 0.00 | 0.00 | 69 | 1009.7 |
| 20260902122824 | 77 | 197 | 1.0 | 1.0 | 0.00 | 0.00 | 0.00 | 68 | 1009.6 |
| 20260902121822 | 77 | 179 | 1.0 | 2.0 | 0.00 | 0.00 | 0.00 | 68 | 1009.6 |
| 20260902120823 | 77 | 193 | 2.0 | 3.0 | 0.00 | 0.00 | 0.00 | 68 | 1009.6 |
| 20260902115822 | 77 | 184 | 1.0 | 3.0 | 0.00 | 0.00 | 0.00 | 68 | 1009.4 |
| 20260902114823 | 77 | 196 | 1.0 | 1.0 | 0.00 | 0.00 | 0.00 | 67 | 1009.3 |
| 20260902113823 | 77 | 191 | 2.0 | 2.0 | 0.00 | 0.00 | 0.00 | 68 | 1009.0 |
| 20260902112822 | 76 | 190 | 2.0 | 3.0 | 0.00 | 0.00 | 0.00 | 67 | 1009.0 |
| 20260902111823 | 76 | 192 | 1.0 | 3.0 | 0.00 | 0.00 | 0.00 | 67 | 1009.0 |
| 20260902110822 | 76 | 183 | 2.0 | 3.0 | 0.00 | 0.00 | 0.00 | 67 | 1009.0 |
| 20260902105823 | 76 | 187 | 2.0 | 3.0 | 0.00 | 0.00 | 0.00 | 66 | 1008.9 |
| 20260902104824 | 77 | 210 | 1.0 | 2.0 | 0.00 | 0.00 | 0.00 | 67 | 1008.8 |
| 20260902103823 | 77 | 212 | 1.0 | 1.0 | 0.00 | 0.00 | 0.00 | 67 | 1008.8 |
| 20260902102822 | 77 | 196 | 1.0 | 2.0 | 0.00 | 0.00 | 0.00 | 66 | 1008.8 |
| 20260902101823 | 77 | 192 | 1.0 | 1.0 | 0.00 | 0.00 | 0.00 | 66 | 1008.7 |
| 20260902100824 | 77 | 219 | 1.0 | 1.0 | 0.00 | 0.00 | 0.00 | 65 | 1008.7 |
| 20260902095823 | 77 | 213 | 0.0 | 1.0 | 0.00 | 0.00 | 0.00 | 64 | 1008.7 |
| 20260902094824 | 78 | 194 | 0.0 | 1.0 | 0.00 | 0.00 | 0.00 | 64 | 1008.6 |
| 20260902093823 | 78 | 197 | 1.0 | 2.0 | 0.00 | 0.00 | 0.00 | 64 | 1008.6 |
| 20260902092824 | 78 | 200 | 1.0 | 2.0 | 0.00 | 0.00 | 0.00 | 63 | 1008.5 |
| 20260902091823 | 78 | 203 | 1.0 | 2.0 | 0.00 | 0.00 | 0.00 | 63 | 1008.5 |
| 20260902090824 | 78 | 210 | 1.0 | 2.0 | 0.00 | 0.00 | 0.00 | 62 | 1008.4 |
| 20260902085823 | 79 | 213 | 1.0 | 1.0 | 0.00 | 0.00 | 0.00 | 62 | 1008.3 |
| 20260902084824 | 79 | 202 | 1.0 | 2.0 | 0.00 | 0.00 | 0.00 | 61 | 1008.3 |
| 20260902083823 | 79 | 217 | 1.0 | 1.0 | 0.00 | 0.00 | 0.00 | 60 | 1008.2 |
| 20260902082824 | 80 | 218 | 0.0 | 1.0 | 0.00 | 0.00 | 0.00 | 59 | 1008.2 |
| 20260902081822 | 80 | 191 | 2.0 | 3.0 | 0.00 | 0.00 | 0.00 | 59 | 1008.2 |
| 20260902080823 | 80 | 195 | 1.0 | 3.0 | 0.00 | 0.00 | 0.00 | 59 | 1008.2 |
| 20260902075822 | 81 | 184 | 2.0 | 3.0 | 0.00 | 0.00 | 0.00 | 58 | 1008.2 |
| 20260902074823 | 81 | 197 | 3.0 | 5.0 | 0.00 | 0.00 | 0.00 | 57 | 1008.2 |
| 20260902073822 | 81 | 209 | 1.0 | 2.0 | 0.00 | 0.00 | 0.00 | 57 | 1008.2 |
| 20260902072823 | 81 | 194 | 2.0 | 3.0 | 0.00 | 0.00 | 0.00 | 57 | 1008.1 |
| 20260902071822 | 81 | 188 | 2.0 | 5.0 | 0.00 | 0.00 | 0.00 | 57 | 1008.1 |
| 20260902070823 | 82 | 201 | 2.0 | 3.0 | 0.00 | 0.00 | 0.00 | 56 | 1008.1 |
| 20260902065823 | 82 | 185 | 3.0 | 3.0 | 0.00 | 0.00 | 0.00 | 56 | 1008.1 |
| 20260902064824 | 82 | 201 | 1.0 | 3.0 | 0.00 | 0.00 | 0.00 | 56 | 1008.1 |
| 20260902063822 | 82 | 196 | 2.0 | 3.0 | 0.00 | 0.00 | 0.00 | 56 | 1008.1 |
| 20260902062823 | 82 | 206 | 2.0 | 3.0 | 0.00 | 0.00 | 0.00 | 55 | 1008.1 |
| 20260902061824 | 82 | 189 | 2.0 | 3.0 | 0.00 | 0.00 | 0.00 | 55 | 1008.1 |
| 20260902060823 | 82 | 194 | 2.0 | 3.0 | 0.00 | 0.00 | 0.00 | 55 | 1008.1 |
| 20260902055824 | 83 | 191 | 2.0 | 2.0 | 0.00 | 0.00 | 0.00 | 55 | 1008.1 |
| 20260902054823 | 83 | 193 | 3.0 | 3.0 | 0.00 | 0.00 | 0.00 | 54 | 1008.2 |
| 20260902053824 | 83 | 181 | 2.0 | 3.0 | 0.00 | 0.00 | 0.00 | 54 | 1008.1 |
| 20260902052823 | 83 | 180 | 2.0 | 3.0 | 0.00 | 0.00 | 0.00 | 54 | 1008.2 |
| 20260902051824 | 83 | 195 | 1.0 | 3.0 | 0.00 | 0.00 | 0.00 | 53 | 1008.2 |
| 20260902050823 | 84 | 202 | 2.0 | 3.0 | 0.00 | 0.00 | 0.00 | 52 | 1008.2 |
| 20260902045823 | 84 | 193 | 3.0 | 3.0 | 0.00 | 0.00 | 0.00 | 52 | 1008.2 |
| 20260902044822 | 84 | 191 | 2.0 | 3.0 | 0.00 | 0.00 | 0.00 | 51 | 1008.2 |
| 20260902043823 | 84 | 183 | 3.0 | 3.0 | 0.00 | 0.00 | 0.00 | 51 | 1008.2 |
| 20260902042822 | 85 | 187 | 2.0 | 3.0 | 0.00 | 0.00 | 0.00 | 50 | 1008.2 |
| 20260902041823 | 85 | 186 | 3.0 | 6.0 | 0.00 | 0.00 | 0.00 | 50 | 1008.2 |
| 20260902040823 | 84 | 188 | 2.0 | 5.0 | 0.00 | 0.00 | 0.00 | 49 | 1008.2 |
| 20260902035822 | 84 | 197 | 2.0 | 3.0 | 0.00 | 0.00 | 0.00 | 49 | 1008.4 |
| 20260902034823 | 84 | 199 | 1.0 | 3.0 | 0.00 | 0.00 | 0.00 | 48 | 1008.4 |
| 20260902033822 | 85 | 196 | 2.0 | 3.0 | 0.00 | 0.00 | 0.00 | 48 | 1008.3 |
| 20260902032824 | 85 | 223 | 1.0 | 2.0 | 0.00 | 0.00 | 0.00 | 47 | 1008.3 |
| 20260902031822 | 85 | 166 | 1.0 | 3.0 | 0.00 | 0.00 | 0.00 | 46 | 1008.2 |
| 20260902030823 | 86 | 178 | 1.0 | 2.0 | 0.00 | 0.00 | 0.00 | 45 | 1008.2 |
| 20260902025823 | 86 | 192 | 1.0 | 1.0 | 0.00 | 0.00 | 0.00 | 44 | 1008.1 |
| 20260902024824 | 87 | 231 | 0.0 | 1.0 | 0.00 | 0.00 | 0.00 | 44 | 1007.9 |
| 20260902023823 | 87 | 197 | 0.0 | 2.0 | 0.00 | 0.00 | 0.00 | 43 | 1007.9 |